Wilmington, DE

6:22 AM EST on November 20, 2019 (GMT -0500)
New Castle County

Weather History for KILG - August, 2019

Change the Weather History Date:

Sunday, August 4, 2019

  Actual Average Record
Temperature  
Mean Temperature 81 °F 76 °F  
Max Temperature 91 °F 85 °F 96 °F (1995)
Min Temperature 71 °F 67 °F 53 °F (1964)
Degree Days  
Heating Degree Days 0 0  
Month to date heating degree days 0 0  
Since 1 June heating degree days 5 15  
Since 1 July heating degree days 0 0  
Cooling Degree Days 16 11  
Month to date cooling degree days 57 46  
Year to date cooling degree days 919 723  
Since 1 June cooling degree days 787 644  
Growing Degree Days 31 (Base 50)    
Moisture  
Dew Point 68 °F    
Average Humidity 67    
Maximum Humidity 93    
Minimum Humidity 41    
Precipitation  
Precipitation 0.00 in 0.12 in 2.00 in (1915)
Month to date precipitation 0.40 0.48  
Year to date precipitation 33.86 25.99  
Snow  
Snow 0.00 in 0.00 in 0.00 in (1894)
Month to date snowfall 0.0 0.0  
Since 1 June snowfall 0.0 0.0  
Since 1 July snowfall 0.0 0.0  
Snow Depth 0.00 in    
Sea Level Pressure  
Sea Level Pressure 29.92 in    
Wind  
Wind Speed 5 mph (NW)    
Max Wind Speed 13 mph    
Max Gust Speed 15 mph    
Visibility 10 miles    
Events      
T = Trace of Precipitation, MM = Missing Value Source: NWS Daily Summary

Daily Weather History Graph

Daily Weather History Graph

Search for Another Location

Airport or City:

Astronomy

Aug. 04, 2019 Rise Set
Actual Time 6:04 AM EDT 8:12 PM EDT
Civil Twilight 5:34 AM EDT 8:42 PM EDT
Nautical Twilight 4:57 AM EDT 9:18 PM EDT
Astronomical Twilight 4:17 AM EDT 9:58 PM EDT
Moon 10:06 AM EDT (8/4) 10:51 PM EDT (8/4)
Length of Visible Light 15h 07m
Length of Day
14h 08m
Waxing Crescent, 18% of the Moon is Illuminated
Aug 4
Waxing Crescent
Aug 7
First Quarter
Aug 15
Full
Aug 23
Last Quarter
Aug 30
New

Hourly Weather History & Observations

Time (EDT) Temp. Heat Index Dew Point Humidity Pressure Visibility Wind Dir Wind Speed Gust Speed Precip Events Conditions
12:51 AM 75.9 °F - 72.0 °F 87% 29.95 in 10.0 mi South 3.5 mph - N/A   Clear
1:51 AM 75.0 °F - 72.0 °F 90% 29.95 in 10.0 mi WNW 4.6 mph - N/A   Mostly Cloudy
2:51 AM 75.0 °F - 71.1 °F 87% 29.93 in 10.0 mi Calm Calm - N/A   Partly Cloudy
3:51 AM 73.0 °F - 71.1 °F 93% 29.92 in 10.0 mi West 3.5 mph - N/A   Mostly Cloudy
4:51 AM 72.0 °F - 70.0 °F 93% 29.92 in 10.0 mi WNW 5.8 mph - N/A   Clear
5:51 AM 73.0 °F - 70.0 °F 90% 29.92 in 10.0 mi WSW 3.5 mph - N/A   Clear
6:51 AM 72.0 °F - 70.0 °F 93% 29.92 in 9.0 mi NW 4.6 mph - N/A   Clear
7:51 AM 75.9 °F - 71.1 °F 85% 29.93 in 10.0 mi WNW 3.5 mph - N/A   Partly Cloudy
8:51 AM 79.0 °F - 70.0 °F 74% 29.94 in 10.0 mi NNW 8.1 mph - N/A   Mostly Cloudy
9:51 AM 82.0 °F 85.9 °F 70.0 °F 67% 29.94 in 10.0 mi North 5.8 mph - N/A   Clear
10:51 AM 84.0 °F 88.4 °F 70.0 °F 63% 29.94 in 10.0 mi Calm Calm - N/A   Clear
11:51 AM 87.1 °F 92.0 °F 70.0 °F 57% 29.94 in 10.0 mi North 4.6 mph - N/A   Partly Cloudy
12:51 PM 88.0 °F 92.9 °F 70.0 °F 55% 29.93 in 10.0 mi North 6.9 mph - N/A   Scattered Clouds
1:51 PM 90.0 °F 91.7 °F 64.9 °F 43% 29.92 in 10.0 mi North 6.9 mph - N/A   Clear
2:51 PM 89.1 °F 91.3 °F 66.0 °F 46% 29.91 in 10.0 mi WNW 8.1 mph - N/A   Partly Cloudy
3:51 PM 90.0 °F 91.3 °F 64.0 °F 42% 29.89 in 10.0 mi NW 8.1 mph - N/A   Clear
4:51 PM 90.0 °F 90.6 °F 63.0 °F 40% 29.89 in 10.0 mi Variable 3.5 mph - N/A   Clear
5:51 PM 90.0 °F 91.7 °F 64.9 °F 43% 29.89 in 10.0 mi NNW 6.9 mph - N/A   Clear
6:51 PM 86.0 °F 87.6 °F 64.9 °F 49% 29.89 in 10.0 mi NW 8.1 mph - N/A   Clear
7:51 PM 82.9 °F 84.4 °F 64.0 °F 53% 29.91 in 10.0 mi WNW 5.8 mph - N/A   Clear
8:51 PM 82.0 °F 83.1 °F 63.0 °F 52% 29.92 in 10.0 mi West 3.5 mph - N/A   Clear
9:51 PM 77.0 °F - 64.9 °F 66% 29.93 in 10.0 mi West 3.5 mph - N/A   Clear
10:51 PM 75.9 °F - 66.0 °F 71% 29.93 in 10.0 mi WNW 3.5 mph - N/A   Clear
11:51 PM 73.9 °F - 66.0 °F 76% 29.94 in 10.0 mi WNW 3.5 mph - N/A   Clear